Location: Banios
(43.0451°N, 0.2335°E)
Time: 08:43:44
(UTC+00:00)

USA 307 - Visible Passes

Search period start: 09 May 2021 00:00
Search period end: 19 May 2021 00:00
Orbit: 566 x 577 km, 54.0° (Epoch: 07 May)

Date Brightness Start Highest point End Pass type
(mag) Time Alt. Az. Time Alt. Az. Time Alt. Az.
09 May 4.7 21:06:18 10° NW 21:09:56 26° NNE 21:12:48 14° ENE visible
09 May 4.0 22:46:03 10° NW 22:48:53 41° NW 22:48:53 41° NW visible
10 May 4.3 21:07:58 10° NW 21:11:50 32° NNE 21:14:12 19° ENE visible
10 May 4.3 22:47:49 10° WNW 22:50:17 32° WNW 22:50:17 32° WNW visible
11 May 3.8 21:09:36 10° NW 21:13:41 42° NNE 21:15:37 26° E visible
11 May 4.7 22:49:40 10° WNW 22:51:44 24° W 22:51:44 24° W visible
12 May 3.3 21:11:15 10° NW 21:15:29 57° NNE 21:17:05 34° E visible
12 May 5.1 22:51:42 10° WNW 22:53:11 18° W 22:53:11 18° W visible
13 May 2.8 21:12:55 10° NW 21:17:13 81° NE 21:18:35 42° ESE visible
13 May 5.4 22:54:01 10° W 22:54:41 12° W 22:54:41 12° W visible
14 May 2.9 21:14:38 10° NW 21:18:54 69° SW 21:20:07 44° SSE visible
15 May 3.5 21:16:26 10° WNW 21:20:31 45° SW 21:21:41 35° S visible
16 May 4.2 21:18:21 10° WNW 21:22:05 29° SW 21:23:19 25° SSW visible
17 May 4.8 21:20:31 10° W 21:23:35 19° SW 21:24:59 17° SSW visible
18 May 5.3 21:23:15 10° W 21:25:03 12° SW 21:26:43 10° SSW visible
